Middletown, PA

2:20 PM EDT on June 25, 2017 (GMT -0400)
Harrisburg International

Weather History for KMDT - August, 2013

Change the Weather History Date:

Friday, August 30, 2013

  Actual Average Record
Temperature  
Mean Temperature 79 °F 72 °F  
Max Temperature 87 °F 81 °F 98 °F (1953)
Min Temperature 70 °F 62 °F 47 °F (1986)
Degree Days  
Heating Degree Days 0 0  
Month to date heating degree days 0 0  
Since 1 June heating degree days 2 18  
Since 1 July heating degree days 0 0  
Cooling Degree Days 14 7  
Month to date cooling degree days 223 271  
Year to date cooling degree days 938 887  
Since 1 June cooling degree days 855 822  
Growing Degree Days 28 (Base 50)    
Moisture  
Dew Point 68 °F    
Average Humidity 75    
Maximum Humidity 90    
Minimum Humidity 59    
Precipitation  
Precipitation 0.00 in 0.10 in 1.85 in (1947)
Month to date precipitation 3.11 3.10  
Year to date precipitation 24.27 26.84  
Sea Level Pressure  
Sea Level Pressure 29.95 in    
Wind  
Wind Speed 7 mph (SSW)    
Max Wind Speed 14 mph    
Max Gust Speed 21 mph    
Visibility 7 miles    
Events      
T = Trace of Precipitation, MM = Missing Value Source: NWS Daily Summary

Daily Weather History Graph

Daily Weather History Graph

Search for Another Location

Airport or City:

Trip Planner

Search our weather history database for the weather conditions in past years. The results will help you decide how hot, cold, wet, or windy it might be!

Date:

Astronomy

Aug. 30, 2013 Rise Set
Actual Time 6:32 AM EDT 7:41 PM EDT
Civil Twilight 6:04 AM EDT 8:09 PM EDT
Nautical Twilight 5:31 AM EDT 8:42 PM EDT
Astronomical Twilight 4:56 AM EDT 9:17 PM EDT
Moon 1:09 AM EDT (8/30) 3:55 PM EDT (8/30)
Length of Visible Light 14h 04m
Length of Day
13h 08m
Waning Crescent, 29% of the Moon is Illuminated
Aug 30
Waning Crescent
Sep 5
New
Sep 12
First Quarter
Sep 19
Full
Sep 26
Last Quarter

Hourly Weather History & Observations

Time (EDT) Temp. Heat Index Dew Point Humidity Pressure Visibility Wind Dir Wind Speed Gust Speed Precip Events Conditions
12:56 AM 72.0 °F - 66.9 °F 84% 30.01 in 8.0 mi Calm Calm - N/A   Scattered Clouds
1:56 AM 71.1 °F - 66.9 °F 87% 30.01 in 6.0 mi SE 4.6 mph - N/A   Scattered Clouds
2:49 AM 71.6 °F - 68.0 °F 88% 30.00 in 5.0 mi SE 5.8 mph - N/A   Overcast
2:56 AM 71.1 °F - 66.9 °F 87% 30.00 in 5.0 mi ESE 4.6 mph - N/A   Overcast
3:56 AM 71.1 °F - 68.0 °F 90% 30.00 in 5.0 mi Calm Calm - N/A   Overcast
4:56 AM 71.1 °F - 68.0 °F 90% 30.00 in 5.0 mi South 4.6 mph - N/A   Overcast
5:18 AM 71.6 °F - 68.0 °F 88% 30.00 in 5.0 mi South 6.9 mph - N/A   Overcast
5:56 AM 71.1 °F - 68.0 °F 90% 30.00 in 4.0 mi SSW 8.1 mph - N/A   Overcast
6:56 AM 71.1 °F - 68.0 °F 90% 30.01 in 3.0 mi SSW 8.1 mph - N/A   Overcast
7:56 AM 72.0 °F - 68.0 °F 87% 30.01 in 4.0 mi SW 11.5 mph - N/A   Mostly Cloudy
8:56 AM 73.0 °F - 68.0 °F 84% 30.01 in 5.0 mi SW 8.1 mph - N/A   Haze
9:56 AM 73.9 °F - 68.0 °F 82% 30.01 in 5.0 mi SW 6.9 mph - N/A   Haze
10:56 AM 77.0 °F - 68.0 °F 74% 30.00 in 5.0 mi SW 4.6 mph - N/A   Haze
11:56 AM 78.1 °F - 69.1 °F 74% 29.98 in 7.0 mi Calm Calm - N/A   Mostly Cloudy
12:56 PM 81.0 °F 84.1 °F 69.1 °F 67% 29.96 in 8.0 mi Calm Calm - N/A   Mostly Cloudy
1:56 PM 84.9 °F 90.1 °F 71.1 °F 63% 29.94 in 10.0 mi SW 3.5 mph - N/A   Mostly Cloudy
2:56 PM 86.0 °F 91.5 °F 71.1 °F 61% 29.91 in 10.0 mi SW 5.8 mph - N/A   Mostly Cloudy
3:56 PM 84.0 °F 87.8 °F 69.1 °F 61% 29.90 in 10.0 mi SSW 10.4 mph - N/A   Mostly Cloudy
4:56 PM 84.9 °F 88.8 °F 69.1 °F 59% 29.88 in 10.0 mi SW 11.5 mph 16.1 mph N/A   Scattered Clouds
5:56 PM 84.9 °F 88.2 °F 68.0 °F 57% 29.87 in 10.0 mi South 11.5 mph - N/A   Scattered Clouds
6:56 PM 82.0 °F 84.9 °F 68.0 °F 62% 29.86 in 10.0 mi South 9.2 mph - N/A   Scattered Clouds
7:56 PM 80.1 °F 82.3 °F 66.9 °F 64% 29.85 in 10.0 mi SSW 6.9 mph - N/A   Scattered Clouds
8:56 PM 79.0 °F - 68.0 °F 69% 29.86 in 10.0 mi South 8.1 mph - N/A   Scattered Clouds
9:56 PM 78.1 °F - 66.9 °F 68% 29.88 in 10.0 mi SSW 9.2 mph - N/A   Partly Cloudy
10:56 PM 77.0 °F - 66.9 °F 71% 29.88 in 10.0 mi Variable 6.9 mph - N/A   Partly Cloudy
11:56 PM 75.9 °F - 68.0 °F 76% 29.87 in 10.0 mi SSW 9.2 mph - N/A   Partly Cloudy